Stations météo

réclame
Mon MeteoGroup
Pembrey Sands, Grande-Bretagne (3605): Température de l'air & dewpoint: 14.04.2018 20:00:00 - 20.04.2018 20:00:00 (BST)Pembrey Sands, Grande-Bretagne (3605): Vitesse du vent & gusts: 14.04.2018 20:00:00 - 20.04.2018 20:00:00 (BST)Pembrey Sands, Grande-Bretagne (3605): Direction du vent: 14.04.2018 20:00:00 - 20.04.2018 20:00:00 (BST)Pembrey Sands, Grande-Bretagne (3605): reduced air pressure: 14.04.2018 20:00:00 - 20.04.2018 20:00:00 (BST)Pembrey Sands, Grande-Bretagne (3605): visibility: 14.04.2018 20:00:00 - 20.04.2018 20:00:00 (BST)Pembrey Sands, Grande-Bretagne (3605): Quantités de précipitations: 14.04.2018 20:00:00 - 20.04.2018 20:00:00 (BST)
Date & Time tt [°C] td [°C] ff [km/h] ff [knt] fx [km/h] fx [knt] dd ppp [hPa] vv [km] rr [mm]
20.04.2018 20:00:00 14,7 5,3 16 9 - - NNW 1024,0 35 0,0
20.04.2018 19:00:00 14,4 11,5 4 2 - - SW 1024,0 6 0,0
20.04.2018 18:00:00 13,6 10,8 5 3 - - WSW 1024,3 14 0,0
20.04.2018 17:00:00 13,6 11,2 11 6 - - WSW 1024,5 18 0,0
20.04.2018 16:00:00 12,7 10,2 11 6 - - SW 1025,0 14 0,0
20.04.2018 15:00:00 12,0 10,2 13 7 - - SSW 1025,4 11 0,0
20.04.2018 14:00:00 11,0 9,3 13 7 - - SW 1025,6 4,3 0,0
20.04.2018 13:00:00 11,6 9,5 13 7 - - SW 1025,9 15 0,0
20.04.2018 12:00:00 11,3 9,5 16 9 - - WSW 1026,2 13 0,0
20.04.2018 11:00:00 10,8 9,1 11 6 - - W 1026,2 11 0,0
20.04.2018 10:00:00 9,5 8,7 13 7 - - W 1025,9 8 0,0
20.04.2018 09:00:00 9,5 8,5 9 5 - - W 1025,6 7 0,0
20.04.2018 08:00:00 8,8 8,2 5 3 - - NW 1025,5 9 0,0
20.04.2018 07:00:00 6,4 5,6 8 4 - - NW 1025,2 10 0,0
20.04.2018 06:00:00 8,1 7,4 11 6 - - WNW 1025,0 9 0,0
20.04.2018 05:00:00 7,7 6,9 13 7 - - N 1024,8 12 0,0
20.04.2018 04:00:00 8,4 7,5 9 5 - - N 1024,6 13 0,0
20.04.2018 03:00:00 10,0 8,7 13 7 - - NNW 1024,8 17 0,0
20.04.2018 02:00:00 11,1 10,1 11 6 - - N 1025,1 12 0,0
20.04.2018 01:00:00 11,1 10,3 11 6 - - NW 1025,3 13 0,0
20.04.2018 00:00:00 10,2 9,6 2 1 - - W 1025,3 2,7 0,0
19.04.2018 23:00:00 8,0 7,2 9 5 - - WNW 1025,3 3,1 0,0
19.04.2018 22:00:00 10,0 9,1 5 3 - - NW 1025,1 1,8 0,0
19.04.2018 21:00:00 10,6 9,6 15 8 - - W 1025,2 6 0,0
19.04.2018 20:00:00 11,2 10,1 16 9 - - SSW 1025,1 4,7 0,0
19.04.2018 19:00:00 11,9 10,2 8 4 - - S 1024,9 11 0,0
19.04.2018 18:00:00 12,2 10,8 9 5 - - SW 1024,9 13 0,0
19.04.2018 17:00:00 11,8 10,7 11 6 - - WSW 1025,2 11 0,0
19.04.2018 16:00:00 12,3 11,1 13 7 - - WSW 1025,4 14 0,0
19.04.2018 15:00:00 13,2 11,7 13 7 - - SW 1025,5 15 0,0
19.04.2018 14:00:00 13,4 11,3 9 5 - - SW 1025,3 21 0,0
19.04.2018 13:00:00 13,6 11,2 5 3 - - SSW 1024,8 13 0,0
19.04.2018 12:00:00 13,0 11,0 4 2 - - S 1024,9 18 0,0
19.04.2018 11:00:00 11,9 10,9 2 1 - - WNW 1024,8 18 0,0
19.04.2018 10:00:00 11,2 10,1 13 7 - - W 1024,5 0,9 0,0
19.04.2018 09:00:00 11,7 9,4 5 3 - - S 1024,0 4,2 -
19.04.2018 08:00:00 10,3 9,7 2 1 - - ESE 1023,5 1,9 -
19.04.2018 07:00:00 8,3 7,4 4 2 - - N 1022,7 1,2 -
19.04.2018 06:00:00 7,6 6,8 5 3 - - ESE 1022,0 7 -
19.04.2018 05:00:00 7,9 6,9 8 4 - - ESE 1022,0 9 -
19.04.2018 04:00:00 7,8 6,0 5 3 - - W 1022,1 4,2 -
19.04.2018 03:00:00 10,7 8,2 4 2 - - WNW 1021,9 2,4 -
19.04.2018 02:00:00 13,6 8,9 16 9 - - ESE 1021,7 24 0,0
19.04.2018 01:00:00 13,9 8,8 15 8 - - ESE 1021,7 30 0,0
19.04.2018 00:00:00 12,4 9,3 16 9 - - SSE 1022,1 2,6 0,0
18.04.2018 23:00:00 13,4 9,2 11 6 - - S 1021,6 2,0 0,0
18.04.2018 22:00:00 15,3 9,3 18 10 - - SE 1021,6 27 0,0
18.04.2018 21:00:00 16,1 9,1 15 8 - - SE 1021,3 28 0,0
18.04.2018 20:00:00 16,5 9,1 22 12 - - SSE 1021,1 4,9 0,0
18.04.2018 19:00:00 17,6 10,0 28 15 48 26 SSE 1020,9 5 0,0
18.04.2018 18:00:00 20,7 9,3 31 17 55 30 SE 1020,8 30 0,0
18.04.2018 17:00:00 20,8 9,5 34 18 52 28 SE 1021,3 30 0,0
18.04.2018 16:00:00 20,6 11,2 35 19 50 27 SSE 1022,1 30 0,0
18.04.2018 15:00:00 21,0 12,5 37 20 55 30 SSE 1023,1 30 0,0
18.04.2018 14:00:00 20,1 12,0 35 19 52 28 SSE 1023,2 29 0,0
18.04.2018 13:00:00 18,6 11,1 31 17 - - SE 1023,4 27 0,0
18.04.2018 12:00:00 16,7 12,0 24 13 - - SSE 1023,9 5 0,0
18.04.2018 11:00:00 13,8 10,7 26 14 - - SSE 1024,2 3,0 0,0
18.04.2018 10:00:00 12,1 10,8 29 16 - - SSE 1024,2 2,1 0,0
18.04.2018 09:00:00 11,0 10,5 31 17 - - S 1024,2 1,8 0,0
18.04.2018 08:00:00 10,9 10,2 29 16 - - S 1023,9 2,2 0,0
18.04.2018 07:00:00 10,8 10,1 34 18 50 27 S 1023,0 2,4 0,0
18.04.2018 06:00:00 10,8 10,3 39 21 48 26 S 1022,4 3,7 0,0
18.04.2018 05:00:00 10,9 10,4 41 22 52 28 S 1021,8 3,3 0,0
18.04.2018 04:00:00 11,0 10,7 39 21 48 26 S 1021,2 2,5 0,2
18.04.2018 03:00:00 11,2 10,9 41 22 46 25 S 1020,7 3,2 0,4
18.04.2018 02:00:00 11,1 10,8 37 20 - - S 1020,9 1,0 0,6
18.04.2018 01:00:00 11,2 10,7 37 20 - - S 1020,3 2,2 0,0
18.04.2018 00:00:00 10,9 10,5 37 20 - - S 1020,0 1,9 0,0
17.04.2018 23:00:00 10,5 10,1 31 17 46 25 S 1019,7 1,8 0,0
17.04.2018 22:00:00 10,8 10,1 35 19 46 25 S 1019,1 3,1 0,0
17.04.2018 21:00:00 10,9 10,2 39 21 - - S 1018,7 3,4 0,0
17.04.2018 20:00:00 10,7 10,1 35 19 - - S 1017,4 2,2 0,0
17.04.2018 19:00:00 10,8 10,2 39 21 59 32 S 1016,9 2,7 0,2
17.04.2018 18:00:00 11,3 10,6 46 25 57 31 S 1016,3 4,1 0,0
17.04.2018 17:00:00 11,0 10,4 37 20 54 29 S 1015,9 4,0 0,0
17.04.2018 16:00:00 10,9 10,3 41 22 52 28 S 1015,4 5 0,0
17.04.2018 15:00:00 10,3 10,0 37 20 46 25 S 1015,4 5 0,0
17.04.2018 14:00:00 10,3 10,0 35 19 - - S 1014,8 2,6 0,0
17.04.2018 13:00:00 10,2 9,8 37 20 63 34 S 1014,3 4,0 0,0
17.04.2018 12:00:00 10,4 10,0 52 28 65 35 S 1013,6 2,4 0,8
17.04.2018 11:00:00 10,4 9,9 54 29 65 35 S 1012,4 2,6 1,4
17.04.2018 10:00:00 9,9 9,5 42 23 55 30 S 1011,7 1,7 2,4
17.04.2018 09:00:00 9,7 9,2 48 26 61 33 S 1011,1 1,8 2,0
17.04.2018 08:00:00 9,6 9,0 48 26 63 34 S 1010,9 1,4 0,8
17.04.2018 07:00:00 9,7 8,8 50 27 81 44 S 1010,5 2,0 0,4
17.04.2018 06:00:00 10,5 8,3 57 31 78 42 S 1009,9 4,3 0,0
17.04.2018 05:00:00 10,8 8,3 50 27 61 33 S 1009,9 6 0,0
17.04.2018 04:00:00 10,9 8,5 54 29 65 35 S 1010,2 6 0,0
17.04.2018 03:00:00 10,9 8,4 52 28 61 33 S 1010,1 7 0,0
17.04.2018 02:00:00 10,8 8,3 52 28 63 34 SSE 1010,4 9 0,0
17.04.2018 01:00:00 11,2 8,3 55 30 67 36 SSE 1010,7 10 0,0
17.04.2018 00:00:00 10,8 8,1 46 25 59 32 S 1010,9 9 0,0
16.04.2018 23:00:00 10,9 8,0 48 26 57 31 SSE 1011,0 8 0,0
16.04.2018 22:00:00 10,8 7,7 39 21 50 27 SSE 1011,3 10 0,0
16.04.2018 21:00:00 10,5 7,9 39 21 - - SSE 1011,9 7 0,0
16.04.2018 20:00:00 10,1 8,0 34 18 - - SSE 1011,8 6 0,0
16.04.2018 19:00:00 10,1 7,8 31 17 - - S 1011,6 5 0,2
16.04.2018 18:00:00 10,8 7,4 28 15 - - S 1011,6 7 0,0
16.04.2018 17:00:00 11,5 7,4 31 17 - - S 1011,4 11 0,0
16.04.2018 16:00:00 11,8 7,3 35 19 46 25 S 1011,5 10 0,0
16.04.2018 15:00:00 12,8 7,6 35 19 48 26 S 1011,7 11 0,0
16.04.2018 14:00:00 12,6 7,5 31 17 - - S 1011,6 8 0,0
16.04.2018 13:00:00 11,9 7,2 37 20 46 25 S 1011,5 10 0,0
16.04.2018 12:00:00 11,3 8,2 35 19 - - S 1011,8 9 0,0
16.04.2018 11:00:00 11,0 8,2 28 15 - - S 1011,3 8 0,0
16.04.2018 10:00:00 10,3 8,2 34 18 - - S 1010,7 8 0,0
16.04.2018 09:00:00 9,5 7,7 29 16 - - S 1010,3 7 0,0
16.04.2018 08:00:00 9,1 7,9 34 18 - - SSW 1009,8 3,8 0,0
16.04.2018 07:00:00 8,9 7,6 29 16 - - SSW 1009,1 4,0 0,0
16.04.2018 06:00:00 8,8 7,0 31 17 - - SSW 1008,4 4,8 0,0
16.04.2018 05:00:00 8,9 7,3 28 15 - - SSW 1008,1 6 0,0
16.04.2018 04:00:00 9,1 7,7 34 18 - - SSW 1007,6 7 0,0
16.04.2018 03:00:00 9,2 7,9 31 17 - - SSW 1007,4 7 0,0
16.04.2018 02:00:00 9,2 7,9 31 17 - - SSW 1006,9 7 0,0
16.04.2018 01:00:00 9,4 8,0 35 19 - - SSW 1006,3 7 0,0
16.04.2018 00:00:00 9,4 8,2 31 17 - - SSW 1005,8 5 0,0
15.04.2018 23:00:00 9,6 8,5 35 19 - - SSW 1005,3 5 0,0
15.04.2018 22:00:00 9,5 8,8 31 17 - - SSW 1004,8 4,5 0,0
15.04.2018 21:00:00 9,5 8,6 28 15 - - SSW 1004,4 4,2 0,0
15.04.2018 20:00:00 9,5 8,8 29 16 - - SSW 1003,7 3,0 0,0
15.04.2018 19:00:00 9,8 9,0 28 15 - - S 1003,2 3,5 0,0
15.04.2018 18:00:00 10,4 9,1 26 14 - - S 1002,8 3,9 0,0
15.04.2018 17:00:00 11,3 9,8 24 13 - - S 1002,6 4,8 0,0
15.04.2018 16:00:00 11,1 10,1 22 12 - - S 1003,0 3,6 1,2
15.04.2018 15:00:00 11,0 9,8 28 15 46 25 SSE 1003,2 21 0,8
15.04.2018 14:00:00 11,2 9,9 28 15 - - SE 1003,5 5 0,6
15.04.2018 13:00:00 12,0 9,8 28 15 57 31 SE 1003,7 35 0,0
15.04.2018 12:00:00 11,6 9,2 26 14 46 25 SE 1004,2 25 0,0
15.04.2018 11:00:00 10,4 9,2 28 15 - - ESE 1004,6 10 0,0
15.04.2018 10:00:00 9,9 9,1 28 15 - - ESE 1005,1 4,2 1,2
15.04.2018 09:00:00 9,7 9,0 28 15 - - ESE 1005,6 3,0 1,0
15.04.2018 08:00:00 9,6 8,7 26 14 - - ESE 1006,2 4,4 0,0
15.04.2018 07:00:00 9,4 8,3 24 13 - - ESE 1006,8 5 0,0
15.04.2018 06:00:00 9,4 8,2 22 12 - - ESE 1007,4 4,4 0,0
15.04.2018 05:00:00 9,6 8,4 22 12 - - ESE 1007,6 3,9 0,0
15.04.2018 04:00:00 9,8 8,2 18 10 - - ESE 1008,7 4,5 0,0
15.04.2018 03:00:00 10,5 8,3 18 10 - - SE 1009,5 5 0,0
15.04.2018 02:00:00 10,5 8,1 18 10 - - ESE 1009,6 6 0,0
15.04.2018 01:00:00 10,9 7,9 21 11 - - ESE 1010,1 10 0,0
15.04.2018 00:00:00 11,4 7,7 22 12 - - SE 1011,1 12 0,0
14.04.2018 23:00:00 11,6 7,3 22 12 - - SE 1011,7 16 0,0
14.04.2018 22:00:00 12,2 7,3 21 11 - - SE 1012,1 17 0,0
14.04.2018 21:00:00 12,9 7,1 18 10 - - SE 1012,4 23 0,0
14.04.2018 20:00:00 13,9 8,6 21 11 - - SE 1012,4 14 0,0

tt = Température de l'air
td = dewpoint
ff = Vitesse du vent
fx = gusts
dd = Direction du vent
ppp = reduced air pressure
vv = visibility
rr = Quantités de précipitations

stations d'obs. à proximité